Location: Innerarity Island Observatory
(30.3139°N, 87.4867°W)
Time: 20:05:54
(UTC-05:00)

OPAL - Visible Passes

Search period start: 29 March 2015 00:00
Search period end: 08 April 2015 00:00
Orbit: 743 x 796 km, 100.2° (Epoch: 29 March)

Date Brightness Start Highest point End Pass type
(mag) Time Alt. Az. Time Alt. Az. Time Alt. Az.
29 Mar 10.5 06:16:22 10° ESE 06:19:20 17° ENE 06:22:30 10° NNE visible
29 Mar 7.4 20:08:14 10° NNE 20:13:16 81° ESE 20:18:22 10° SSW visible
30 Mar 8.1 19:33:24 10° NE 19:37:52 32° E 19:42:26 10° SSE visible
30 Mar 9.9 21:12:43 10° NNW 21:16:36 22° WNW 21:20:24 10° WSW visible
31 Mar 8.3 20:36:33 10° N 20:41:28 52° WNW 20:46:23 10° SSW visible
01 Apr 10.7 06:10:14 10° E 06:12:18 13° ENE 06:14:40 10° NE visible
01 Apr 7.5 20:01:11 10° NNE 20:06:11 64° ESE 20:11:15 10° S visible
01 Apr 10.6 21:42:42 10° NW 21:44:39 12° WNW 21:46:16 10° W visible
02 Apr 8.4 19:26:35 10° NE 19:30:43 26° E 19:35:01 10° SSE visible
02 Apr 9.5 21:05:17 10° NNW 21:09:34 28° WNW 21:13:48 10° SW visible
03 Apr 7.9 20:29:23 10° N 20:34:23 67° WNW 20:39:27 10° SSW visible
04 Apr 11.1 06:05:16 10° ENE 06:05:18 10° ENE 06:05:41 10° ENE visible
04 Apr 7.7 19:54:10 10° NNE 19:59:04 50° ESE 20:04:03 10° S visible
04 Apr 10.4 21:34:42 10° NNW 21:37:38 15° WNW 21:40:20 10° W visible
05 Apr 9.1 20:57:56 10° N 21:02:32 35° WNW 21:07:06 10° SW visible
06 Apr 7.5 20:22:13 10° NNE 20:27:18 84° WNW 20:32:28 10° SSW visible
07 Apr 7.9 19:47:13 10° NNE 19:51:57 40° E 19:56:47 10° S visible
07 Apr 10.1 21:27:01 10° NNW 21:30:36 19° WNW 21:34:02 10° WSW visible
